Imperial, NE

6:01 PM MDT on May 29, 2017 (GMT -0600)
Imperial Municipal

Weather History for KIML - February, 2012

Change the Weather History Date:

Friday, February 17, 2012

  Actual Average Record
Temperature  
Mean Temperature 35 °F 32 °F  
Max Temperature 47 °F 45 °F 78 °F (1970)
Min Temperature 22 °F 19 °F -15 °F (1993)
Degree Days  
Heating Degree Days 30 33  
Month to date heating degree days 641 590  
Cooling Degree Days 0 0  
Month to date cooling degree days 0 0  
Year to date cooling degree days 0 0  
Moisture  
Dew Point 22 °F    
Average Humidity 59    
Maximum Humidity 85    
Minimum Humidity 33    
Precipitation  
Precipitation 0.00 in 0.01 in 0.52 in (1934)
Sea Level Pressure  
Sea Level Pressure 30.16 in    
Wind  
Wind Speed 7 mph (North)    
Max Wind Speed 17 mph    
Max Gust Speed 20 mph    
Visibility 10 miles    
Events      
T = Trace of Precipitation, MM = Missing Value Source: NWS Daily Summary

Daily Weather History Graph

Daily Weather History Graph

Search for Another Location

Airport or City:

Trip Planner

Search our weather history database for the weather conditions in past years. The results will help you decide how hot, cold, wet, or windy it might be!

Date:

Astronomy

Feb. 17, 2012 Rise Set
Actual Time 6:38 AM MST 5:23 PM MST
Civil Twilight 6:10 AM MST 5:51 PM MST
Nautical Twilight 5:38 AM MST 6:23 PM MST
Astronomical Twilight 5:06 AM MST 6:54 PM MST
Moon 3:31 AM MST (2/17) 1:17 PM MST (2/17)
Length of Visible Light 11h 41m
Length of Day
10h 45m
Waning Crescent, 18% of the Moon is Illuminated
Feb 17
Waning Crescent
Feb 21
New
Feb 29
First Quarter
Mar 8
Full
Mar 14
Last Quarter

Hourly Weather History & Observations

Time (MST) Temp. Windchill Dew Point Humidity Pressure Visibility Wind Dir Wind Speed Gust Speed Precip Events Conditions
12:53 AM 28.0 °F 21.7 °F 21.0 °F 75% 30.11 in 10.0 mi WNW 5.8 mph - N/A   Clear
1:53 AM 28.0 °F 20.0 °F 21.0 °F 75% 30.11 in 10.0 mi West 8.1 mph - N/A   Clear
2:53 AM 24.8 °F 16.9 °F 19.4 °F 80% 30.03 in 10.0 mi WNW 6.9 mph - N/A   Clear
3:53 AM 24.1 °F - 19.9 °F 84% 30.11 in 10.0 mi Calm Calm - N/A   Clear
4:53 AM 26.1 °F 16.2 °F 19.9 °F 78% 30.11 in 10.0 mi NW 10.4 mph - N/A   Clear
5:53 AM 25.0 °F 18.1 °F 19.0 °F 78% 30.13 in 10.0 mi WNW 5.8 mph - N/A   Clear
6:53 AM 28.0 °F 18.6 °F 18.0 °F 66% 30.15 in 10.0 mi NW 10.4 mph - N/A   Clear
7:53 AM 28.9 °F 21.9 °F 19.9 °F 69% 30.17 in 10.0 mi NNW 6.9 mph - N/A   Clear
8:53 AM 33.1 °F 28.7 °F 23.0 °F 66% 30.17 in 10.0 mi NNW 4.6 mph - N/A   Clear
9:53 AM 34.0 °F 31.0 °F 24.1 °F 67% 30.16 in 10.0 mi NNW 3.5 mph - N/A   Clear
10:53 AM 43.0 °F 36.0 °F 25.0 °F 49% 30.14 in 10.0 mi North 13.8 mph - N/A   Clear
11:53 AM 45.0 °F 38.2 °F 24.1 °F 44% 30.13 in 10.0 mi North 15.0 mph - N/A   Clear
12:53 PM 46.9 °F - 24.1 °F 41% 30.12 in 10.0 mi North 11.5 mph - N/A   Clear
1:53 PM 46.4 °F 42.4 °F 19.4 °F 34% 30.06 in 10.0 mi NE 8.1 mph - N/A   Clear
2:53 PM 45.0 °F 40.6 °F 17.1 °F 33% 30.14 in 10.0 mi NE 8.1 mph - N/A   Clear
3:53 PM 43.0 °F 37.7 °F 21.0 °F 42% 30.16 in 10.0 mi ENE 9.2 mph - N/A   Partly Cloudy
4:53 PM 37.9 °F 29.6 °F 25.0 °F 60% 30.19 in 10.0 mi NE 13.8 mph - N/A   Scattered Clouds
5:53 PM 34.0 °F 26.6 °F 26.1 °F 73% 30.22 in 10.0 mi ENE 9.2 mph - N/A   Clear
6:53 PM 30.9 °F 23.5 °F 25.0 °F 79% 30.24 in 10.0 mi NE 8.1 mph - N/A   Partly Cloudy
7:53 PM 30.2 °F 23.4 °F 24.8 °F 80% 30.17 in 10.0 mi ENE 6.9 mph - N/A   Mostly Cloudy
9:53 PM 28.0 °F - 24.1 °F 85% 30.28 in 10.0 mi Calm Calm - N/A   Overcast
10:53 PM 27.0 °F 23.0 °F 23.0 °F 85% 30.27 in 10.0 mi SW 3.5 mph - N/A   Mostly Cloudy
11:53 PM 26.1 °F - 21.9 °F 84% 30.25 in 10.0 mi Calm Calm - N/A   Clear